Location: *
(49.5667°N, 1.3667°W)
Time: 06:47:22
(UTC+00:00)

Meteor 2-9 Rocket - Pass Details

Date: 20 September 2019
Orbit: 791 x 896 km, 81.3° (Epoch: 17 October)

Event Time Altitude Azimuth Distance (km) Brightness Sun altitude
Rises 18:36:37 0° 184° (S) 3,468 7.4 -5.3°
Reaches altitude 10° 18:39:04 10° 183° (S) 2,522 6.6 -5.7°
Maximum altitude 18:44:48 76° 99° (E) 891 4.2 -6.7°
Drops below altitude 10° 18:50:24 10° 15° (NNE) 2,472 6.6 -7.6°
Sets 18:52:47 0° 14° (NNE) 3,394 7.3 -7.9°
